#timestamp,LO_Frequency,Hit,StdDev 
1621090815.1,286046987.7,N
1621090816.0,286046987.7,N
1621090835.8,286046981.3,N
1621090855.6,286046974.0,N
1621090875.5,286046964.7,Y
1621090895.3,286046964.7,P
1621090915.2,286046961.2,N
1621090935.9,286046961.2,N
1621090955.7,286046955.1,Y
1621090975.6,286046982.6,P
1621090995.4,286046984.9,N
1621091015.3,286046988.7,N
1621091035.1,286046993.2,N
1621091036.0,286046993.2,N
1621091055.8,286046991.0,N
1621091075.7,286046989.5,N
1621091095.5,286046991.5,N
1621091115.3,286046991.7,N
1621091135.2,286046995.1,N
1621091155.0,286046996.6,N
1621091155.9,286046996.6,N
1621091175.8,286046997.9,N
1621091195.6,286046997.9,N
1621091215.4,286046999.6,N
1621091235.3,286046994.9,N
1621091255.1,286046997.6,N
1621091275.9,286046997.7,N
1621091295.7,286046999.5,N
1621091315.5,286046995.4,N
1621091335.4,286046994.5,N
1621091355.2,286046990.5,N
1621091375.0,286046993.7,N
1621091375.9,286046993.7,N
1621091395.8,286046994.3,N
1621091415.6,286046984.9,N
1621091435.5,286046975.7,Y
1621091455.3,286046980.8,P
1621091475.1,286046977.7,P
1621091495.9,286046976.0,P
1621091515.7,286046981.8,N
1621091535.5,286046990.6,N
1621091555.4,286046999.3,N
1621091575.2,286047003.9,N
1621091595.1,286047006.1,N
1621091596.0,286047006.1,N
1621091615.8,286047005.5,N
1621091635.6,286047003.3,N
1621091655.5,286047003.0,N
1621091675.3,286047005.6,N
1621091695.2,286047000.2,N
1621091715.9,286046999.4,N
1621091735.7,286046993.9,N
1621091755.6,286046992.3,N
1621091775.4,286046987.5,N
1621091795.2,286046986.7,N
1621091815.1,286046983.6,N
1621091816.0,286046983.6,N
1621091835.8,286046974.4,N
1621091855.7,286046973.5,N
1621091875.5,286046970.8,N
1621091895.3,286046961.3,Y
1621091915.2,286046964.1,P
1621091935.0,286046960.6,N
1621091935.9,286046960.6,N
1621091955.8,286046965.5,N
1621091975.6,286046963.7,Y
1621091995.4,286046998.0,P
1621092015.3,286046993.8,N
1621092035.1,286046992.4,N
1621092055.8,286046990.5,N
1621092075.7,286046992.1,N
1621092095.5,286046984.1,N
1621092115.4,286046983.6,N
1621092135.2,286046976.5,N
1621092155.0,286046971.0,Y
1621092155.9,286046971.0,P
1621092175.8,286046978.9,N
1621092195.6,286046981.6,N
1621092215.5,286046980.2,Y
1621092235.3,286046997.4,P
1621092255.1,286046996.2,N
1621092275.9,286046999.2,N
1621092295.7,286047003.2,N
1621092315.5,286047005.4,N
1621092335.4,286047008.4,N
1621092355.2,286047002.1,N
1621092375.1,286046996.1,N
1621092376.0,286046996.1,N
1621092395.8,286046989.7,N
1621092415.6,286046986.3,N
1621092435.5,286046981.6,N
1621092455.3,286046976.2,N
1621092475.1,286046972.6,N
1621092495.9,286046969.7,N
1621092515.7,286046967.7,N
1621092535.6,286046970.0,N
1621092555.4,286046966.6,N
1621092575.2,286046963.7,N
1621092595.1,286046962.7,N
1621092596.0,286046962.7,N
1621092615.8,286046960.6,N
1621092635.6,286046956.7,N
1621092655.5,286046954.0,N
1621092675.3,286046955.8,N
1621092695.2,286046958.9,N
1621092715.9,286046958.7,N
1621092735.7,286046956.5,N
1621092755.6,286046955.1,N
1621092775.4,286046953.4,N
1621092795.3,286046954.7,N
1621092815.1,286046948.9,N
1621092816.0,286046948.9,N
1621092835.8,286046949.0,N
1621092855.7,286046947.9,N
1621092875.5,286046944.6,Y
1621092895.3,286046977.6,P
1621092915.2,286046978.3,P
1621092935.0,286046976.1,P
1621092935.9,286046976.1,Y
1621092955.8,286047004.3,P
1621092975.6,286047002.6,N
1621092995.4,286047000.0,N
1621093015.3,286047001.0,N
1621093035.1,286046999.4,N
1621093055.9,286046995.5,N
1621093075.7,286046994.5,N
1621093095.5,286046994.1,N
1621093115.4,286046995.4,N
1621093135.2,286046997.5,N
1621093155.0,286046997.2,N
1621093156.0,286046997.2,N
1621093175.8,286046997.9,N
1621093195.6,286046998.3,N
1621093215.5,286047005.9,N
1621093235.3,286047008.7,N
1621093255.1,286047013.8,N
1621093275.9,286047018.6,N
1621093295.7,286047021.4,N
1621093315.6,286047021.8,N
1621093335.4,286047022.8,N
1621093355.2,286047025.1,N
1621093375.1,286047026.3,N
1621093376.0,286047026.3,N
1621093395.8,286047026.7,N
1621093415.7,286047023.5,N
1621093435.5,286047018.5,N
1621093455.3,286047013.9,N
1621093475.2,286047008.4,N
1621093495.0,286047004.8,N
1621093495.9,286047004.8,N
1621093515.8,286047001.4,N
1621093535.6,286046998.5,N
1621093555.4,286046999.4,N
1621093575.3,286046995.2,N
1621093595.1,286046992.6,N
1621093615.8,286046993.5,N
1621093635.7,286046992.2,N
1621093655.5,286046995.7,N
1621093675.4,286046998.0,N
1621093695.2,286046997.3,N
1621093715.0,286046996.6,N
1621093715.9,286046996.6,N
1621093735.8,286047000.4,N
1621093755.6,286046999.7,N
1621093775.5,286047002.3,N
1621093795.3,286046998.5,N
1621093815.1,286047002.3,N
1621093835.9,286047000.1,N
1621093855.7,286046996.7,N
1621093875.5,286046996.6,N
1621093895.4,286046997.1,N
1621093915.2,286046997.3,N
1621093935.1,286046996.6,N
1621093936.0,286046996.6,N
1621093955.8,286047000.4,N
1621093975.6,286047006.9,N
1621093995.5,286047012.1,N
1621094015.3,286047013.1,N
1621094035.2,286047013.9,N
1621094055.9,286047013.3,N
1621094075.7,286047009.8,N
1621094095.6,286047008.4,N
1621094115.4,286047006.6,N
1621094135.2,286047010.5,N
1621094155.1,286047008.7,N
1621094156.0,286047008.7,N
1621094175.8,286047008.4,N
1621094195.7,286047011.8,N
1621094215.5,286047012.5,N
1621094235.3,286047018.6,N
1621094255.2,286047017.4,N
1621094275.0,286047015.7,N
1621094275.9,286047015.7,N
1621094295.8,286047015.9,N
1621094315.6,286047022.0,Y
1621094335.4,286047015.8,P
1621094355.3,286047022.2,P
1621094375.1,286047031.7,P
1621094395.9,286047036.5,Y
